User: anonymous   Login
Location: Caltech
(34.1382°N, 118.1253°W)
Time: 11:18:53
(UTC-08:00)
Language:

Cosmos 44 Rocket - Orbit

View from above orbital plane
View from above orbital plane
View from above satellite
View from above satellite

Ground track
Ground track

The orbit data is extracted from the following two-line orbital elements,

1 00877U 64053B   14332.02340897  .00000474  00000-0  12390-3 0  7953
2 00877 065.0780 135.5379 0051917 124.9220 235.6773 14.58957882665508
Epoch (UTC): 28 November 2014 00:33:42
Eccentricity: 0.0051917
inclination: 65.0780°
perigee height: 660 km
apogee height: 733 km
right ascension of ascending node: 135.5379°
argument of perigee: 124.9220°
revolutions per day: 14.58957882
mean anomaly at epoch: 235.6773°
orbit number at epoch: 66550

The dashed part of the orbit path shows where the satellite is in the earth's shadow,  

DLR